Simultaneous Nadir Overpasses (SNOs) Predictions

Prediction of SNOs between NOAA-20 and AQUA Satellite Orbit:

Table of predicted SNOs for the next 14.0 days since TLE Epoch: 11/22/2025
Index Date (NOAA-20) Time (NOAA-20) Lat,Lon (NOAA-20) SZA (NOAA-20 ) Date (AQUA) Time (AQUA) Lat,Lon (AQUA) SZA (AQUA ) Distance(km) Time Diff (sec)
1 11/22/2025 16:59:19 81.24,-137.16 105.57 11/22/2025 16:59:20 81.23,-137.24 105.57 1.32 1
2 11/25/2025 01:39:34 -81.24, -87.33 73.93 11/25/2025 01:40:02 -81.23, -87.33 73.95 0.40 28
3 11/25/2025 02:30:18 81.23, 80.49 106.02 11/25/2025 02:29:19 81.23, 80.30 106.07 3.25 59
4 11/27/2025 10:19:49 81.24, -37.31 106.53 11/27/2025 10:20:42 81.25, -37.16 106.49 2.75 53
5 11/27/2025 11:10:33 -81.23, 130.31 73.51 11/27/2025 11:10:00 -81.24, 130.30 73.49 0.63 33
6 11/29/2025 19:50:48 81.23,-179.73 106.92 11/29/2025 19:50:40 81.23,-179.84 106.94 2.05 8
7 12/02/2025 04:31:02 -81.23,-129.91 72.68 12/02/2025 04:31:19 -81.23,-130.04 72.68 2.29 17
8 12/02/2025 05:21:47 81.23, 37.43 107.33 12/02/2025 05:20:36 81.22, 37.54 107.34 2.16 71
9 12/04/2025 13:11:17 81.23, -80.08 107.69 12/04/2025 13:11:57 81.23, -80.04 107.67 0.83 40



Historial Predications of SNOs between NOAA-20 and AQUA
